| time (UTC) | temp F | wind direction | speed MPH | gust MPH | rain 1hr in | rain 24hr in | rain mn in | humidity % | barometer mb |
| 20260506032009 | 78 | 76 | 1.0 | 7.0 | 0.00 | 0.00 | 0.00 | 84 | 1009.2 |
| 20260506031532 | 78 | 69 | 1.0 | 7.0 | 0.00 | 0.00 | 0.00 | 83 | 1009.1 |
| 20260506031006 | 78 | 63 | 1.0 | 7.0 | 0.00 | 0.00 | 0.00 | 83 | 1009.0 |
| 20260506030503 | 78 | 69 | 2.0 | 7.0 | 0.00 | 0.00 | 0.00 | 83 | 1008.9 |
| 20260506024527 | 78 | 113 | 3.0 | 7.0 | 0.00 | 0.00 | 0.00 | 83 | 1008.8 |
| 20260506024008 | 78 | 59 | 1.0 | 7.0 | 0.00 | 0.00 | 0.00 | 82 | 1008.7 |
| 20260506023508 | 78 | 69 | 2.0 | 6.0 | 0.00 | 0.00 | 0.00 | 82 | 1008.6 |
| 20260506023020 | 78 | 88 | 1.0 | 6.0 | 0.00 | 0.00 | 0.00 | 82 | 1008.5 |
| 20260506022509 | 78 | 74 | 2.0 | 8.0 | 0.00 | 0.00 | 0.00 | 81 | 1008.4 |
| 20260506022009 | 79 | 82 | 3.0 | 8.0 | 0.00 | 0.00 | 0.00 | 81 | 1008.5 |
| 20260506021519 | 79 | 63 | 2.0 | 6.0 | 0.00 | 0.00 | 0.00 | 81 | 1008.3 |
| 20260506021006 | 79 | 67 | 2.0 | 4.0 | 0.00 | 0.00 | 0.00 | 81 | 1008.3 |
| 20260506020506 | 79 | 53 | 0.0 | 4.0 | 0.00 | 0.00 | 0.00 | 81 | 1008.2 |
| 20260506020016 | 79 | 56 | 1.0 | 4.0 | 0.00 | 0.00 | 0.00 | 80 | 1008.2 |
| 20260506015510 | 79 | 80 | 1.0 | 4.0 | 0.00 | 0.00 | 0.00 | 80 | 1008.1 |
| 20260506015007 | 79 | 68 | 1.0 | 4.0 | 0.00 | 0.00 | 0.00 | 80 | 1008.1 |
| 20260506014519 | 79 | 76 | 2.0 | 4.0 | 0.00 | 0.00 | 0.00 | 80 | 1008.1 |
| 20260506014008 | 79 | 65 | 0.0 | 6.0 | 0.00 | 0.00 | 0.00 | 79 | 1008.1 |
| 20260506013023 | 79 | 63 | 1.0 | 5.0 | 0.00 | 0.00 | 0.00 | 79 | 1008.0 |
| 20260506012508 | 79 | 87 | 1.0 | 5.0 | 0.00 | 0.00 | 0.00 | 79 | 1008.0 |
| 20260506012010 | 79 | 37 | 2.0 | 5.0 | 0.00 | 0.00 | 0.00 | 79 | 1007.8 |
| 20260506011515 | 79 | 72 | 2.0 | 5.0 | 0.00 | 0.00 | 0.00 | 78 | 1007.6 |
| 20260506011003 | 79 | 88 | 1.0 | 4.0 | 0.00 | 0.00 | 0.00 | 78 | 1007.6 |
| 20260506010511 | 80 | 65 | 1.0 | 4.0 | 0.00 | 0.00 | 0.00 | 77 | 1007.5 |
| 20260506010043 | 80 | 59 | 2.0 | 6.0 | 0.00 | 0.00 | 0.00 | 77 | 1007.3 |
| 20260506005509 | 80 | 92 | 2.0 | 6.0 | 0.00 | 0.00 | 0.00 | 77 | 1007.4 |
| 20260506005006 | 80 | 78 | 1.0 | 6.0 | 0.00 | 0.00 | 0.00 | 76 | 1007.3 |
| 20260506004522 | 80 | 60 | 1.0 | 5.0 | 0.00 | 0.00 | 0.00 | 76 | 1007.3 |
| 20260506004010 | 80 | 69 | 2.0 | 5.0 | 0.00 | 0.00 | 0.00 | 76 | 1007.2 |
| 20260506003502 | 80 | 74 | 1.0 | 5.0 | 0.00 | 0.00 | 0.00 | 76 | 1007.2 |
| 20260506003008 | 80 | 61 | 1.0 | 4.0 | 0.00 | 0.00 | 0.00 | 76 | 1007.2 |
| 20260506002504 | 80 | 88 | 1.0 | 5.0 | 0.00 | 0.00 | 0.00 | 77 | 1007.2 |
| 20260506002005 | 80 | 64 | 1.0 | 5.0 | 0.00 | 0.00 | 0.00 | 76 | 1007.1 |
| 20260506001513 | 80 | 65 | 1.0 | 5.0 | 0.00 | 0.00 | 0.00 | 76 | 1007.1 |
| 20260506001006 | 81 | 68 | 2.0 | 5.0 | 0.00 | 0.00 | 0.00 | 76 | 1007.1 |
| 20260506000508 | 81 | 67 | 2.0 | 7.0 | 0.00 | 0.00 | 0.00 | 76 | 1007.1 |
| 20260506000020 | 81 | 72 | 2.0 | 7.0 | 0.00 | 0.00 | 0.00 | 76 | 1007.2 |
| 20260505235508 | 81 | 72 | 2.0 | 9.0 | 0.00 | 0.00 | 0.00 | 75 | 1007.2 |
| 20260505235011 | 81 | 68 | 2.0 | 9.0 | 0.00 | 0.00 | 0.00 | 75 | 1007.2 |
| 20260505234522 | 81 | 94 | 4.0 | 8.0 | 0.00 | 0.00 | 0.00 | 75 | 1007.1 |
| 20260505234004 | 81 | 68 | 2.0 | 6.0 | 0.00 | 0.00 | 0.00 | 76 | 1007.0 |
| 20260505233504 | 81 | 76 | 2.0 | 5.0 | 0.00 | 0.00 | 0.00 | 76 | 1007.0 |
| 20260505233011 | 81 | 80 | 2.0 | 5.0 | 0.00 | 0.00 | 0.00 | 75 | 1007.1 |
| 20260505232507 | 81 | 86 | 2.0 | 5.0 | 0.00 | 0.00 | 0.00 | 76 | 1007.1 |
| 20260505232005 | 81 | 57 | 2.0 | 5.0 | 0.00 | 0.00 | 0.00 | 76 | 1007.1 |
| 20260505231518 | 82 | 55 | 2.0 | 5.0 | 0.00 | 0.00 | 0.00 | 75 | 1007.1 |
| 20260505231005 | 82 | 70 | 2.0 | 6.0 | 0.00 | 0.00 | 0.00 | 75 | 1007.1 |
| 20260505230506 | 82 | 56 | 2.0 | 7.0 | 0.00 | 0.00 | 0.00 | 75 | 1007.1 |
| 20260505230026 | 82 | 72 | 2.0 | 7.0 | 0.00 | 0.00 | 0.00 | 74 | 1007.2 |
| 20260505225510 | 82 | 74 | 2.0 | 6.0 | 0.00 | 0.00 | 0.00 | 74 | 1007.2 |
| 20260505225009 | 82 | 69 | 3.0 | 6.0 | 0.00 | 0.00 | 0.00 | 74 | 1007.2 |
| 20260505224522 | 82 | 32 | 2.0 | 8.0 | 0.00 | 0.00 | 0.00 | 74 | 1007.2 |
| 20260505224004 | 82 | 57 | 1.0 | 8.0 | 0.00 | 0.00 | 0.00 | 73 | 1007.2 |
| 20260505223507 | 82 | 73 | 2.0 | 7.0 | 0.00 | 0.00 | 0.00 | 73 | 1007.1 |
| 20260505223010 | 83 | 75 | 3.0 | 7.0 | 0.00 | 0.00 | 0.00 | 72 | 1007.3 |
| 20260505222508 | 83 | 70 | 1.0 | 7.0 | 0.00 | 0.00 | 0.00 | 72 | 1007.2 |
| 20260505222010 | 83 | 66 | 2.0 | 7.0 | 0.00 | 0.00 | 0.00 | 72 | 1007.3 |
| 20260505221520 | 83 | 67 | 3.0 | 6.0 | 0.00 | 0.00 | 0.00 | 72 | 1007.2 |
| 20260505215508 | 84 | 43 | 3.0 | 6.0 | 0.00 | 0.00 | 0.00 | 70 | 1007.3 |
| 20260505215011 | 84 | 89 | 2.0 | 10.0 | 0.00 | 0.00 | 0.00 | 71 | 1007.5 |
| 20260505214523 | 83 | 51 | 2.0 | 10.0 | 0.00 | 0.00 | 0.00 | 71 | 1007.4 |
| 20260505214008 | 84 | 78 | 2.0 | 4.0 | 0.00 | 0.00 | 0.00 | 72 | 1007.5 |
| 20260505212511 | 84 | 82 | 3.0 | 8.0 | 0.00 | 0.00 | 0.00 | 70 | 1007.7 |
| 20260505211522 | 84 | 80 | 2.0 | 7.0 | 0.00 | 0.00 | 0.00 | 72 | 1007.8 |
| 20260505210511 | 84 | 72 | 3.0 | 7.0 | 0.00 | 0.00 | 0.00 | 71 | 1007.9 |
| 20260505210025 | 84 | 275 | 2.0 | 6.0 | 0.00 | 0.00 | 0.00 | 71 | 1008.0 |
| 20260505204510 | 84 | 87 | 2.0 | 10.0 | 0.00 | 0.00 | 0.00 | 70 | 1008.2 |
| 20260505204010 | 84 | 93 | 3.0 | 10.0 | 0.00 | 0.00 | 0.00 | 70 | 1008.2 |
| 20260505203507 | 84 | 50 | 2.0 | 5.0 | 0.00 | 0.00 | 0.00 | 70 | 1008.3 |
| 20260505203027 | 85 | 84 | 1.0 | 5.0 | 0.00 | 0.00 | 0.00 | 70 | 1008.4 |
| 20260505202512 | 84 | 279 | 2.0 | 5.0 | 0.00 | 0.00 | 0.00 | 71 | 1008.3 |
| 20260505202008 | 84 | 103 | 3.0 | 5.0 | 0.00 | 0.00 | 0.00 | 71 | 1008.5 |
| 20260505201522 | 84 | 55 | 1.0 | 6.0 | 0.00 | 0.00 | 0.00 | 73 | 1008.6 |
| 20260505201009 | 83 | 63 | 1.0 | 6.0 | 0.00 | 0.00 | 0.00 | 74 | 1008.7 |
| 20260505200511 | 83 | 91 | 0.0 | 4.0 | 0.00 | 0.00 | 0.00 | 74 | 1008.9 |
| 20260505200025 | 83 | 56 | 1.0 | 6.0 | 0.00 | 0.00 | 0.00 | 74 | 1008.9 |
| 20260505195511 | 83 | 69 | 1.0 | 9.0 | 0.00 | 0.00 | 0.00 | 74 | 1009.0 |
| 20260505194512 | 83 | 63 | 2.0 | 9.0 | 0.00 | 0.00 | 0.00 | 73 | 1009.1 |
| 20260505194004 | 83 | 84 | 3.0 | 8.0 | 0.00 | 0.00 | 0.00 | 73 | 1009.1 |
| 20260505193509 | 82 | 69 | 3.0 | 7.0 | 0.00 | 0.00 | 0.00 | 74 | 1009.1 |
| 20260505193020 | 82 | 50 | 3.0 | 7.0 | 0.00 | 0.00 | 0.00 | 74 | 1009.1 |
| 20260505192509 | 82 | 281 | 1.0 | 4.0 | 0.00 | 0.00 | 0.00 | 73 | 1009.1 |
| 20260505192012 | 83 | 49 | 1.0 | 5.0 | 0.00 | 0.00 | 0.00 | 72 | 1009.1 |
| 20260505191523 | 83 | 62 | 2.0 | 5.0 | 0.00 | 0.00 | 0.00 | 73 | 1009.1 |
| 20260505191009 | 83 | 51 | 1.0 | 5.0 | 0.00 | 0.00 | 0.00 | 74 | 1009.2 |
| 20260505190512 | 82 | 32 | 1.0 | 6.0 | 0.00 | 0.00 | 0.00 | 74 | 1009.2 |
| 20260505190034 | 82 | 53 | 2.0 | 7.0 | 0.00 | 0.00 | 0.00 | 74 | 1009.1 |
| 20260505185513 | 82 | 69 | 1.0 | 7.0 | 0.00 | 0.00 | 0.00 | 74 | 1009.2 |
| 20260505185005 | 82 | 51 | 1.0 | 6.0 | 0.00 | 0.00 | 0.00 | 75 | 1009.2 |
| 20260505184514 | 81 | 271 | 1.0 | 6.0 | 0.00 | 0.00 | 0.00 | 76 | 1009.3 |
| 20260505184007 | 81 | 271 | 0.0 | 6.0 | 0.00 | 0.00 | 0.00 | 76 | 1009.4 |
| 20260505183508 | 82 | 79 | 1.0 | 4.0 | 0.00 | 0.00 | 0.00 | 76 | 1009.4 |
| 20260505183018 | 82 | 53 | 1.0 | 4.0 | 0.00 | 0.00 | 0.00 | 76 | 1009.4 |
| 20260505182507 | 81 | 65 | 1.0 | 5.0 | 0.00 | 0.00 | 0.00 | 76 | 1009.4 |
| 20260505182013 | 81 | 269 | 2.0 | 5.0 | 0.00 | 0.00 | 0.00 | 76 | 1009.4 |
| 20260505181527 | 81 | 63 | 2.0 | 5.0 | 0.00 | 0.00 | 0.00 | 76 | 1009.5 |
| 20260505181011 | 81 | 57 | 0.0 | 6.0 | 0.00 | 0.00 | 0.00 | 77 | 1009.6 |
| 20260505180511 | 81 | 59 | 2.0 | 6.0 | 0.00 | 0.00 | 0.00 | 76 | 1009.5 |
| 20260505180026 | 81 | 54 | 2.0 | 6.0 | 0.00 | 0.00 | 0.00 | 77 | 1009.5 |
| 20260505175510 | 80 | 44 | 1.0 | 4.0 | 0.00 | 0.00 | 0.00 | 78 | 1009.6 |
| 20260505175014 | 80 | 49 | 0.0 | 6.0 | 0.00 | 0.00 | 0.00 | 79 | 1009.7 |
| 20260505174517 | 80 | 67 | 1.0 | 6.0 | 0.00 | 0.00 | 0.00 | 78 | 1009.7 |
| 20260505174007 | 80 | 71 | 2.0 | 6.0 | 0.00 | 0.00 | 0.00 | 78 | 1009.8 |
| 20260505173507 | 80 | 24 | 1.0 | 4.0 | 0.00 | 0.00 | 0.00 | 79 | 1009.8 |
| 20260505173034 | 79 | 80 | 1.0 | 4.0 | 0.00 | 0.00 | 0.00 | 79 | 1009.9 |
| 20260505172511 | 79 | 22 | 1.0 | 3.0 | 0.00 | 0.00 | 0.00 | 80 | 1010.0 |
| 20260505172010 | 80 | 53 | 0.0 | 3.0 | 0.00 | 0.00 | 0.00 | 80 | 1010.0 |
| 20260505171538 | 79 | 58 | 0.0 | 4.0 | 0.00 | 0.00 | 0.00 | 80 | 1010.0 |
| 20260505171011 | 79 | 34 | 1.0 | 6.0 | 0.00 | 0.00 | 0.00 | 80 | 1010.0 |
| 20260505170510 | 79 | 38 | 2.0 | 6.0 | 0.00 | 0.00 | 0.00 | 81 | 1010.1 |
| 20260505170027 | 79 | 40 | 1.0 | 4.0 | 0.00 | 0.00 | 0.00 | 80 | 1010.0 |
| 20260505165511 | 79 | 59 | 2.0 | 5.0 | 0.00 | 0.00 | 0.00 | 80 | 1010.1 |
| 20260505165004 | 79 | 60 | 2.0 | 5.0 | 0.00 | 0.00 | 0.00 | 80 | 1010.1 |
| 20260505164519 | 79 | 63 | 2.0 | 5.0 | 0.00 | 0.00 | 0.00 | 80 | 1010.1 |
| 20260505164007 | 79 | 250 | 0.0 | 3.0 | 0.00 | 0.00 | 0.00 | 81 | 1010.1 |
| 20260505163508 | 79 | 246 | 1.0 | 5.0 | 0.00 | 0.00 | 0.00 | 81 | 1010.0 |
| 20260505163025 | 79 | 55 | 1.0 | 5.0 | 0.00 | 0.00 | 0.00 | 81 | 1010.0 |
| 20260505162509 | 79 | 36 | 0.0 | 4.0 | 0.00 | 0.00 | 0.00 | 82 | 1010.1 |
| 20260505162011 | 78 | 59 | 1.0 | 4.0 | 0.00 | 0.00 | 0.00 | 82 | 1010.0 |
| 20260505161526 | 78 | 44 | 1.0 | 4.0 | 0.00 | 0.00 | 0.00 | 82 | 1010.0 |
| 20260505161011 | 78 | 277 | 0.0 | 3.0 | 0.00 | 0.00 | 0.00 | 83 | 1010.0 |
| 20260505160515 | 78 | 65 | 1.0 | 6.0 | 0.00 | 0.00 | 0.00 | 82 | 1010.0 |
| 20260505152504 | 75 | 54 | 1.0 | 4.0 | 0.00 | 0.00 | 0.00 | 87 | 1009.8 |
| 20260505152004 | 75 | 49 | 1.0 | 4.0 | 0.00 | 0.00 | 0.00 | 86 | 1009.8 |
| 20260505151511 | 76 | 82 | 1.0 | 3.0 | 0.00 | 0.00 | 0.00 | 86 | 1009.8 |
| 20260505151004 | 76 | 67 | 0.0 | 6.0 | 0.00 | 0.00 | 0.00 | 85 | 1009.7 |
| 20260505150507 | 76 | 73 | 1.0 | 6.0 | 0.00 | 0.00 | 0.00 | 85 | 1009.7 |
| 20260505140508 | 76 | 56 | 2.0 | 6.0 | 0.00 | 0.00 | 0.00 | 85 | 1009.5 |
| 20260505125011 | 73 | 71 | 1.0 | 3.0 | 0.00 | 0.00 | 0.00 | 89 | 1009.4 |
| 20260505124507 | 72 | 79 | 1.0 | 4.0 | 0.00 | 0.00 | 0.00 | 90 | 1009.1 |
| 20260505124007 | 72 | 352 | 1.0 | 6.0 | 0.00 | 0.00 | 0.00 | 90 | 1009.2 |
| 20260505123503 | 72 | 78 | 2.0 | 6.0 | 0.00 | 0.00 | 0.00 | 90 | 1009.1 |
| 20260505123012 | 72 | 57 | 1.0 | 3.0 | 0.00 | 0.00 | 0.00 | 90 | 1009.3 |
| 20260505122507 | 72 | 59 | 0.0 | 3.0 | 0.00 | 0.00 | 0.00 | 90 | 1009.2 |
| 20260505122008 | 71 | 76 | 1.0 | 3.0 | 0.00 | 0.00 | 0.00 | 90 | 1009.1 |
| 20260505121518 | 71 | 63 | 1.0 | 3.0 | 0.00 | 0.00 | 0.00 | 90 | 1009.0 |
| 20260505120507 | 71 | 360 | 0.0 | 3.0 | 0.00 | 0.00 | 0.00 | 91 | 1009.0 |
| 20260505120051 | 71 | 75 | 0.0 | 3.0 | 0.00 | 0.00 | 0.00 | 90 | 1008.8 |
| 20260505115508 | 71 | 61 | 1.0 | 3.0 | 0.00 | 0.00 | 0.00 | 90 | 1008.8 |
| 20260505115010 | 71 | 61 | 0.0 | 3.0 | 0.00 | 0.00 | 0.00 | 90 | 1008.8 |
| 20260505114002 | 71 | 72 | 1.0 | 3.0 | 0.00 | 0.00 | 0.00 | 90 | 1008.7 |
| 20260505112513 | 71 | 59 | 1.0 | 3.0 | 0.00 | 0.00 | 0.00 | 90 | 1009.2 |
| 20260505111521 | 71 | 71 | 1.0 | 2.0 | 0.00 | 0.00 | 0.00 | 90 | 1008.9 |
| 20260505110511 | 71 | 92 | 0.0 | 4.0 | 0.00 | 0.00 | 0.00 | 90 | 1008.8 |
| 20260505102015 | 71 | 88 | 1.0 | 3.0 | 0.00 | 0.00 | 0.00 | 89 | 1008.9 |
| 20260505101525 | 71 | 53 | 0.0 | 4.0 | 0.00 | 0.00 | 0.00 | 89 | 1008.9 |
| 20260505101010 | 71 | 76 | 1.0 | 4.0 | 0.00 | 0.00 | 0.00 | 89 | 1008.8 |
| 20260505100508 | 71 | 86 | 1.0 | 3.0 | 0.00 | 0.00 | 0.00 | 89 | 1008.8 |
| 20260505100029 | 71 | 83 | 1.0 | 3.0 | 0.00 | 0.00 | 0.00 | 89 | 1008.9 |
| 20260505095008 | 71 | 64 | 1.0 | 4.0 | 0.00 | 0.00 | 0.00 | 89 | 1009.1 |
| 20260505094512 | 71 | 54 | 0.0 | 3.0 | 0.00 | 0.00 | 0.00 | 89 | 1009.1 |
| 20260505094006 | 71 | 74 | 0.0 | 3.0 | 0.00 | 0.00 | 0.00 | 89 | 1009.0 |
| 20260505093506 | 70 | 67 | 1.0 | 3.0 | 0.00 | 0.00 | 0.00 | 89 | 1008.9 |
| 20260505093022 | 70 | 65 | 1.0 | 3.0 | 0.00 | 0.00 | 0.00 | 89 | 1009.0 |
| 20260505092507 | 70 | 78 | 0.0 | 2.0 | 0.00 | 0.00 | 0.00 | 89 | 1009.0 |
| 20260505092010 | 70 | 63 | 0.0 | 2.0 | 0.00 | 0.00 | 0.00 | 89 | 1009.0 |
| 20260505091528 | 70 | 73 | 0.0 | 2.0 | 0.00 | 0.00 | 0.00 | 89 | 1009.1 |
| 20260505091012 | 70 | 64 | 0.0 | 2.0 | 0.00 | 0.00 | 0.00 | 89 | 1009.2 |
| 20260505090510 | 70 | 67 | 0.0 | 2.0 | 0.00 | 0.00 | 0.00 | 89 | 1009.2 |
| 20260505090038 | 70 | 64 | 0.0 | 2.0 | 0.00 | 0.00 | 0.00 | 89 | 1009.2 |
| 20260505085510 | 70 | 74 | 0.0 | 2.0 | 0.00 | 0.00 | 0.00 | 89 | 1009.2 |
| 20260505085006 | 70 | 71 | 0.0 | 2.0 | 0.00 | 0.00 | 0.00 | 89 | 1009.2 |
| 20260505084007 | 70 | 60 | 0.0 | 2.0 | 0.00 | 0.00 | 0.00 | 89 | 1009.2 |
| 20260505083507 | 70 | 65 | 0.0 | 2.0 | 0.00 | 0.00 | 0.00 | 88 | 1009.2 |
| 20260505083021 | 70 | 69 | 0.0 | 1.0 | 0.00 | 0.00 | 0.00 | 88 | 1009.3 |
| 20260505082508 | 70 | 65 | 0.0 | 1.0 | 0.00 | 0.00 | 0.00 | 88 | 1009.5 |
| 20260505082010 | 70 | 68 | 0.0 | 2.0 | 0.00 | 0.00 | 0.00 | 88 | 1009.5 |
| 20260505081527 | 70 | 73 | 0.0 | 2.0 | 0.00 | 0.00 | 0.00 | 88 | 1009.6 |
| 20260505081008 | 70 | 64 | 0.0 | 2.0 | 0.00 | 0.00 | 0.00 | 87 | 1009.6 |
| 20260505080507 | 70 | 72 | 0.0 | 3.0 | 0.00 | 0.00 | 0.00 | 87 | 1009.6 |
| 20260505080033 | 70 | 74 | 0.0 | 3.0 | 0.00 | 0.00 | 0.00 | 87 | 1009.7 |
| 20260505075506 | 70 | 59 | 0.0 | 2.0 | 0.00 | 0.00 | 0.00 | 87 | 1009.7 |
| 20260505075007 | 70 | 72 | 0.0 | 2.0 | 0.00 | 0.00 | 0.00 | 87 | 1009.8 |
| 20260505074516 | 70 | 67 | 1.0 | 2.0 | 0.00 | 0.00 | 0.00 | 86 | 1009.8 |
| 20260505074007 | 70 | 59 | 0.0 | 3.0 | 0.00 | 0.00 | 0.00 | 86 | 1009.9 |
| 20260505073508 | 70 | 57 | 1.0 | 3.0 | 0.00 | 0.00 | 0.00 | 86 | 1009.8 |
| 20260505073040 | 70 | 69 | 0.0 | 2.0 | 0.00 | 0.00 | 0.00 | 86 | 1009.8 |
| 20260505072508 | 70 | 67 | 0.0 | 2.0 | 0.00 | 0.00 | 0.00 | 86 | 1009.8 |
| 20260505072011 | 70 | 64 | 1.0 | 3.0 | 0.00 | 0.00 | 0.00 | 86 | 1009.9 |
| 20260505071525 | 70 | 75 | 0.0 | 3.0 | 0.00 | 0.00 | 0.00 | 86 | 1009.9 |
| 20260505071011 | 70 | 68 | 1.0 | 3.0 | 0.00 | 0.00 | 0.00 | 85 | 1010.0 |
| 20260505070512 | 71 | 69 | 0.0 | 4.0 | 0.00 | 0.00 | 0.00 | 85 | 1010.1 |
| 20260505070028 | 71 | 67 | 1.0 | 5.0 | 0.00 | 0.00 | 0.00 | 85 | 1010.0 |
| 20260505065505 | 70 | 72 | 1.0 | 5.0 | 0.00 | 0.00 | 0.00 | 85 | 1010.0 |
| 20260505065006 | 71 | 67 | 1.0 | 4.0 | 0.00 | 0.00 | 0.00 | 85 | 1010.1 |
| 20260505064535 | 71 | 74 | 1.0 | 4.0 | 0.00 | 0.00 | 0.00 | 85 | 1010.1 |
| 20260505064007 | 71 | 107 | 1.0 | 5.0 | 0.00 | 0.00 | 0.00 | 84 | 1010.1 |
| 20260505063509 | 71 | 73 | 1.0 | 5.0 | 0.00 | 0.00 | 0.00 | 84 | 1010.2 |
| 20260505063026 | 71 | 67 | 1.0 | 5.0 | 0.00 | 0.00 | 0.00 | 84 | 1010.3 |
| 20260505062509 | 71 | 90 | 1.0 | 5.0 | 0.00 | 0.00 | 0.00 | 84 | 1010.4 |
| 20260505062011 | 71 | 74 | 1.0 | 4.0 | 0.00 | 0.00 | 0.00 | 84 | 1010.5 |
| 20260505061540 | 71 | 80 | 1.0 | 4.0 | 0.00 | 0.00 | 0.00 | 84 | 1010.7 |
| 20260505061010 | 71 | 78 | 1.0 | 3.0 | 0.00 | 0.00 | 0.00 | 84 | 1010.7 |
| 20260505060511 | 71 | 79 | 1.0 | 3.0 | 0.00 | 0.00 | 0.00 | 83 | 1010.9 |
| 20260505060033 | 71 | 69 | 1.0 | 4.0 | 0.00 | 0.00 | 0.00 | 83 | 1010.8 |
| 20260505055511 | 71 | 80 | 2.0 | 4.0 | 0.00 | 0.00 | 0.00 | 83 | 1010.8 |
| 20260505055011 | 71 | 85 | 1.0 | 3.0 | 0.00 | 0.00 | 0.00 | 83 | 1010.7 |
| 20260505054532 | 71 | 82 | 1.0 | 5.0 | 0.00 | 0.00 | 0.00 | 83 | 1010.7 |
| 20260505054007 | 71 | 67 | 2.0 | 5.0 | 0.00 | 0.00 | 0.00 | 83 | 1010.7 |
| 20260505053507 | 71 | 80 | 2.0 | 4.0 | 0.00 | 0.00 | 0.00 | 83 | 1010.7 |
| 20260505053008 | 71 | 68 | 1.0 | 4.0 | 0.00 | 0.00 | 0.00 | 83 | 1010.8 |
| 20260505052504 | 71 | 68 | 1.0 | 4.0 | 0.00 | 0.00 | 0.00 | 82 | 1010.9 |
| 20260505052004 | 71 | 72 | 1.0 | 3.0 | 0.00 | 0.00 | 0.00 | 82 | 1011.1 |
| 20260505051514 | 71 | 68 | 1.0 | 3.0 | 0.00 | 0.00 | 0.00 | 82 | 1011.1 |
| 20260505051006 | 71 | 63 | 1.0 | 4.0 | 0.00 | 0.00 | 0.00 | 82 | 1011.1 |
| 20260505050507 | 71 | 61 | 1.0 | 4.0 | 0.00 | 0.00 | 0.00 | 82 | 1011.1 |
| 20260505041515 | 72 | 71 | 2.0 | 5.0 | 0.00 | 0.00 | 0.00 | 80 | 1011.2 |
| 20260505041010 | 72 | 96 | 2.0 | 6.0 | 0.00 | 0.00 | 0.00 | 80 | 1011.1 |
| 20260505040023 | 72 | 86 | 2.0 | 7.0 | 0.00 | 0.00 | 0.00 | 79 | 1011.2 |
| 20260505035010 | 72 | 79 | 2.0 | 6.0 | 0.00 | 0.00 | 0.00 | 79 | 1011.3 |
| 20260505034506 | 72 | 73 | 2.0 | 6.0 | 0.00 | 0.00 | 0.00 | 79 | 1011.1 |
| 20260505034006 | 72 | 84 | 2.0 | 6.0 | 0.00 | 0.00 | 0.00 | 78 | 1011.2 |
| 20260505033503 | 72 | 79 | 2.0 | 8.0 | 0.00 | 0.00 | 0.00 | 78 | 1011.4 |
| 20260505033009 | 72 | 72 | 3.0 | 8.0 | 0.00 | 0.00 | 0.00 | 78 | 1011.4 |
| 20260505032505 | 73 | 65 | 2.0 | 6.0 | 0.00 | 0.00 | 0.00 | 78 | 1011.5 |